Stillwater, OK

6:04 AM CDT on March 30, 2017 (GMT -0500)
Stillwater Municipal

Weather History for KSWO - October, 2013

Change the Weather History Date:

Tuesday, October 1, 2013

  Actual Average Record
Temperature  
Mean Temperature 73 °F -  
Max Temperature 90 °F 76 °F 95 °F (2006)
Min Temperature 57 °F 52 °F 42 °F (2001)
Cooling Degree Days 8    
Growing Degree Days 23 (Base 50)    
Moisture  
Dew Point 61 °F    
Average Humidity 73    
Maximum Humidity 100    
Minimum Humidity 42    
Precipitation  
Precipitation 0.00 in - - ()
Sea Level Pressure  
Sea Level Pressure 29.87 in    
Wind  
Wind Speed 8 mph (SSE)    
Max Wind Speed 15 mph    
Max Gust Speed 22 mph    
Visibility 8 miles    
Events Fog    
Averages and records for this station are not official NWS values.
T = Trace of Precipitation, MM = Missing Value Source: NWS Daily Summary

Daily Weather History Graph

Daily Weather History Graph

Search for Another Location

Airport or City:

Trip Planner

Search our weather history database for the weather conditions in past years. The results will help you decide how hot, cold, wet, or windy it might be!

Date:

Astronomy

Oct. 01, 2013 Rise Set
Actual Time 7:23 AM CDT 7:11 PM CDT
Civil Twilight 6:58 AM CDT 7:37 PM CDT
Nautical Twilight 6:28 AM CDT 8:06 PM CDT
Astronomical Twilight 5:58 AM CDT 8:36 PM CDT
Moon 4:04 AM CDT (10/1) 5:11 PM CDT (10/1)
Length of Visible Light 12h 39m
Length of Day
11h 47m
Waning Crescent, 12% of the Moon is Illuminated
Oct 1
Waning Crescent
Oct 4
New
Oct 11
First Quarter
Oct 18
Full
Oct 26
Last Quarter

Hourly Weather History & Observations

Time (CDT) Temp. Heat Index Dew Point Humidity Pressure Visibility Wind Dir Wind Speed Gust Speed Precip Events Conditions
12:53 AM 60.1 °F - 51.1 °F 72% 29.81 in 10.0 mi South 3.5 mph - N/A   Clear
1:53 AM 59.0 °F - 51.1 °F 75% 29.82 in 10.0 mi SSE 5.8 mph - N/A   Clear
2:53 AM 60.1 °F - 51.1 °F 72% 29.82 in 10.0 mi SE 5.8 mph - N/A   Clear
3:53 AM 57.9 °F - 51.1 °F 78% 29.83 in 10.0 mi SE 5.8 mph - N/A   Clear
4:53 AM 57.9 °F - 53.1 °F 84% 29.83 in 10.0 mi SE 4.6 mph - N/A   Clear
5:53 AM 57.9 °F - 54.0 °F 87% 29.85 in 10.0 mi SE 5.8 mph - N/A   Clear
6:53 AM 59.0 °F - 57.0 °F 93% 29.87 in 10.0 mi SE 6.9 mph - N/A   Clear
7:29 AM 62.6 °F - 60.8 °F 94% 29.90 in 2.5 mi SE 10.4 mph - N/A   Scattered Clouds
7:32 AM 62.6 °F - 60.8 °F 94% 29.90 in 1.2 mi SE 9.2 mph - N/A   Mostly Cloudy
7:41 AM 62.6 °F - 60.8 °F 94% 29.90 in 0.5 mi SE 9.2 mph - N/A Fog Fog
7:49 AM 62.6 °F - 60.8 °F 94% 29.90 in 0.2 mi SE 8.1 mph - N/A Fog Fog
7:53 AM 63.0 °F - 62.1 °F 97% 29.88 in 0.2 mi SE 6.9 mph - N/A Fog Fog
8:39 AM 64.4 °F - 62.6 °F 94% 29.91 in 0.5 mi SE 9.2 mph - N/A Fog Fog
8:53 AM 64.9 °F - 64.0 °F 97% 29.89 in 1.5 mi SE 9.2 mph - N/A   Overcast
9:00 AM 64.4 °F - 64.4 °F 100% 29.92 in 3.0 mi SSE 8.1 mph - N/A   Overcast
9:33 AM 69.8 °F - 64.4 °F 83% 29.92 in 7.0 mi SSE 10.4 mph - N/A   Partly Cloudy
9:53 AM 73.0 °F - 64.9 °F 76% 29.90 in 10.0 mi SSE 10.4 mph - N/A   Clear
10:53 AM 79.0 °F - 66.0 °F 64% 29.91 in 10.0 mi SSE 15.0 mph 20.7 mph N/A   Clear
11:53 AM 82.9 °F 84.0 °F 63.0 °F 51% 29.90 in 10.0 mi SSE 12.7 mph 21.9 mph N/A   Clear
12:53 PM 86.0 °F 86.3 °F 62.1 °F 44% 29.88 in 10.0 mi SSE 15.0 mph 20.7 mph N/A   Clear
1:53 PM 88.0 °F 88.7 °F 63.0 °F 43% 29.86 in 10.0 mi SSE 15.0 mph - N/A   Clear
2:53 PM 89.1 °F 90.0 °F 63.0 °F 42% 29.85 in 10.0 mi South 13.8 mph 19.6 mph N/A   Clear
3:53 PM 89.1 °F 90.0 °F 63.0 °F 42% 29.85 in 10.0 mi South 13.8 mph 19.6 mph N/A   Clear
4:53 PM 87.1 °F 87.8 °F 63.0 °F 44% 29.84 in 10.0 mi South 13.8 mph - N/A   Clear
5:53 PM 86.0 °F 86.8 °F 63.0 °F 46% 29.85 in 10.0 mi SSE 10.4 mph - N/A   Clear
6:53 PM 81.0 °F 82.2 °F 63.0 °F 54% 29.86 in 10.0 mi SSE 9.2 mph - N/A   Clear
7:53 PM 77.0 °F - 63.0 °F 62% 29.87 in 10.0 mi SE 6.9 mph - N/A   Clear
8:53 PM 75.0 °F - 63.0 °F 66% 29.88 in 10.0 mi SE 8.1 mph - N/A   Clear
9:53 PM 73.9 °F - 62.1 °F 66% 29.89 in 10.0 mi SE 9.2 mph - N/A   Clear
10:53 PM 72.0 °F - 62.1 °F 71% 29.91 in 10.0 mi SE 10.4 mph - N/A   Clear
11:53 PM 73.0 °F - 64.9 °F 76% 29.91 in 10.0 mi SSE 11.5 mph - N/A   Clear